Terminal Aerodrome Forecast
Issued by NWS Blacksburg, VA

Current Version | Previous Version | Graphics & Text | Print | Product List | Glossary On
Versions: 1 2 3 4 5 6 7 8 9 10 11 12 13 14 15 16 17 18 19 20 21 22 23 24 25 26 27 28 29 30 31 32 33 34
307
FTUS41 KRNK 181122
TAFBLF
TAF
KBLF 181122Z 1812/1912 24008KT P6SM OVC060
     FM181400 25010G22KT P6SM BKN050
     FM190300 28020G31KT P6SM VCSH OVC050
      TEMPO 1907/1909 BKN030=

USA.gov is the U.S. government's official web portal to all federal, state and local government web resources and services.